Weather History for KMNM - August, 2012

Change the Weather History Date:

Friday, August 10, 2012

  Actual Average Record
Temperature  
Mean Temperature 62 °F -  
Max Temperature 69 °F 79 °F 97 °F (1958)
Min Temperature 55 °F 57 °F 43 °F (1972)
Degree Days  
Heating Degree Days 3    
Growing Degree Days 12 (Base 50)    
Moisture  
Dew Point 50 °F    
Average Humidity 68    
Maximum Humidity 94    
Minimum Humidity 38    
Precipitation  
Precipitation 0.18 in - - ()
Sea Level Pressure  
Sea Level Pressure 30.01 in    
Wind  
Wind Speed 11 mph (North)    
Max Wind Speed 20 mph    
Max Gust Speed 31 mph    
Visibility 10 miles    
Events      
Averages and records for this station are not official NWS values.
T = Trace of Precipitation, MM = Missing Value Source: NWS Daily Summary

Daily Weather History Graph

Daily Weather History Graph

Search for Another Location

Airport or City:

Trip Planner

Search our weather history database for the weather conditions in past years. The results will help you decide how hot, cold, wet, or windy it might be!

Date:

Astronomy

Aug. 10, 2012 Rise Set
Actual Time 5:46 AM CDT 8:04 PM CDT
Civil Twilight 5:14 AM CDT 8:36 PM CDT
Nautical Twilight 4:33 AM CDT 9:16 PM CDT
Astronomical Twilight 3:48 AM CDT 10:01 PM CDT
Moon No Moon Rise 2:48 PM CDT (8/10)
Length of Visible Light 15h 22m
Length of Day
14h 17m
Last Quarter, 41% of the Moon is Illuminated
Aug 10
Last Quarter
Aug 17
New
Aug 24
First Quarter
Aug 31
Full
Sep 8
Last Quarter

Hourly Weather History & Observations

Time (CDT) Temp. Dew Point Humidity Pressure Visibility Wind Dir Wind Speed Gust Speed Precip Events Conditions
12:15 AM 57.2 °F 55.4 °F 94% 30.00 in 10.0 mi North 6.9 mph - N/A   Scattered Clouds
12:35 AM 57.2 °F 55.4 °F 94% 30.00 in 10.0 mi North 8.1 mph - N/A   Partly Cloudy
12:55 AM 57.2 °F 55.4 °F 94% 30.00 in 10.0 mi North 6.9 mph - N/A   Clear
1:15 AM 57.2 °F 55.4 °F 94% 30.00 in 10.0 mi North 9.2 mph - N/A   Clear
1:35 AM 57.2 °F 55.4 °F 94% 29.99 in 10.0 mi North 8.1 mph - N/A   Clear
1:55 AM 57.2 °F 53.6 °F 88% 29.99 in 10.0 mi North 8.1 mph - N/A   Clear
2:15 AM 57.2 °F 53.6 °F 88% 29.99 in 10.0 mi North 9.2 mph - N/A   Clear
2:35 AM 57.2 °F 53.6 °F 88% 29.99 in 10.0 mi NNE 10.4 mph - N/A   Clear
2:55 AM 57.2 °F 53.6 °F 88% 29.99 in 10.0 mi NNE 9.2 mph - N/A   Clear
3:15 AM 57.2 °F 53.6 °F 88% 29.98 in 10.0 mi North 9.2 mph - N/A   Clear
3:35 AM 57.2 °F 53.6 °F 88% 29.99 in 10.0 mi North 9.2 mph - N/A   Clear
3:55 AM 55.4 °F 51.8 °F 88% 29.99 in 10.0 mi North 10.4 mph - N/A   Clear
4:15 AM 55.4 °F 51.8 °F 88% 29.99 in 10.0 mi North 10.4 mph - N/A   Clear
4:35 AM 55.4 °F 51.8 °F 88% 29.99 in 10.0 mi North 9.2 mph - N/A   Clear
4:55 AM 55.4 °F 51.8 °F 88% 30.00 in 10.0 mi North 9.2 mph - N/A   Clear
5:15 AM 55.4 °F 51.8 °F 88% 30.00 in 10.0 mi North 8.1 mph - N/A   Clear
5:35 AM 55.4 °F 51.8 °F 88% 30.01 in 10.0 mi North 9.2 mph - N/A   Clear
5:55 AM 55.4 °F 51.8 °F 88% 30.02 in 10.0 mi North 9.2 mph - N/A   Clear
6:15 AM 55.4 °F 51.8 °F 88% 30.02 in 10.0 mi North 11.5 mph 16.1 mph N/A   Clear
6:35 AM 55.4 °F 51.8 °F 88% 30.03 in 10.0 mi North 9.2 mph - N/A   Clear
6:55 AM 55.4 °F 51.8 °F 88% 30.03 in 10.0 mi NNE 10.4 mph - N/A   Clear
7:15 AM 57.2 °F 53.6 °F 88% 30.03 in 10.0 mi North 11.5 mph 18.4 mph N/A   Clear
7:35 AM 57.2 °F 53.6 °F 88% 30.03 in 10.0 mi NNE 11.5 mph 17.3 mph N/A   Clear
7:55 AM 57.2 °F 53.6 °F 88% 30.03 in 10.0 mi North 12.7 mph - N/A   Clear
8:15 AM 59.0 °F 53.6 °F 82% 30.03 in 10.0 mi North 10.4 mph 16.1 mph N/A   Clear
8:35 AM 60.8 °F 53.6 °F 77% 30.03 in 10.0 mi North 10.4 mph - N/A   Clear
8:55 AM 60.8 °F 53.6 °F 77% 30.03 in 10.0 mi North 11.5 mph - N/A   Clear
9:15 AM 62.6 °F 53.6 °F 72% 30.03 in 10.0 mi North 15.0 mph 19.6 mph N/A   Clear
9:35 AM 64.4 °F 53.6 °F 68% 30.03 in 10.0 mi North 13.8 mph 19.6 mph N/A   Clear
9:55 AM 64.4 °F 53.6 °F 68% 30.03 in 10.0 mi NNE 16.1 mph 23.0 mph N/A   Clear
10:15 AM 66.2 °F 53.6 °F 64% 30.02 in 10.0 mi North 15.0 mph 19.6 mph N/A   Clear
10:55 AM 68.0 °F 48.2 °F 49% 30.02 in 10.0 mi NE 19.6 mph 31.1 mph N/A   Scattered Clouds
11:15 AM 68.0 °F 48.2 °F 49% 30.02 in 10.0 mi NNE 17.3 mph 27.6 mph N/A   Scattered Clouds
11:35 AM 66.2 °F 51.8 °F 60% 30.02 in 10.0 mi NE 17.3 mph 24.2 mph N/A   Partly Cloudy
11:55 AM 68.0 °F 50.0 °F 52% 30.01 in 10.0 mi NNE 16.1 mph 27.6 mph N/A   Partly Cloudy
12:15 PM 68.0 °F 50.0 °F 52% 30.01 in 10.0 mi North 15.0 mph 23.0 mph N/A   Clear
12:35 PM 69.8 °F 48.2 °F 46% 30.00 in 10.0 mi NNE 18.4 mph 25.3 mph N/A   Partly Cloudy
12:55 PM 69.8 °F 46.4 °F 43% 30.01 in 10.0 mi NE 18.4 mph 24.2 mph N/A   Partly Cloudy
1:15 PM 69.8 °F 46.4 °F 43% 30.01 in 10.0 mi NNE 17.3 mph 27.6 mph N/A   Clear
1:35 PM 68.0 °F 46.4 °F 46% 30.00 in 10.0 mi North 15.0 mph 24.2 mph N/A   Clear
1:55 PM 69.8 °F 48.2 °F 46% 30.00 in 10.0 mi North 15.0 mph 27.6 mph N/A   Partly Cloudy
2:15 PM 68.0 °F 46.4 °F 46% 30.01 in 10.0 mi NNE 16.1 mph 19.6 mph N/A   Clear
2:35 PM 69.8 °F 46.4 °F 43% 30.01 in 10.0 mi North 15.0 mph 25.3 mph N/A   Clear
2:55 PM 69.8 °F 44.6 °F 40% 30.01 in 10.0 mi NNE 15.0 mph 25.3 mph N/A   Clear
3:15 PM 69.8 °F 46.4 °F 43% 30.01 in 10.0 mi North 13.8 mph 21.9 mph N/A   Clear
3:35 PM 68.0 °F 46.4 °F 46% 30.01 in 10.0 mi North 12.7 mph 23.0 mph N/A   Clear
3:55 PM 68.0 °F 42.8 °F 40% 30.01 in 10.0 mi NNE 16.1 mph 26.5 mph N/A   Clear
4:15 PM 68.0 °F 46.4 °F 46% 30.01 in 10.0 mi North 12.7 mph 25.3 mph N/A   Clear
4:35 PM 69.8 °F 42.8 °F 38% 30.01 in 10.0 mi North 19.6 mph 28.8 mph N/A   Clear
4:55 PM 66.2 °F 42.8 °F 43% 30.01 in 10.0 mi NNE 13.8 mph 23.0 mph N/A   Clear
5:15 PM 64.4 °F 44.6 °F 49% 30.00 in 10.0 mi NNE 11.5 mph 21.9 mph N/A   Clear
5:35 PM 64.4 °F 46.4 °F 52% 30.01 in 10.0 mi NNE 15.0 mph 21.9 mph N/A   Clear
5:55 PM 66.2 °F 46.4 °F 49% 30.01 in 10.0 mi NNE 12.7 mph 20.7 mph N/A   Clear
6:15 PM 64.4 °F 46.4 °F 52% 30.01 in 10.0 mi NE 11.5 mph 24.2 mph N/A   Clear
6:35 PM 64.4 °F 46.4 °F 52% 30.00 in 10.0 mi NNE 11.5 mph - N/A   Clear
6:55 PM 64.4 °F 46.4 °F 52% 30.00 in 10.0 mi NNE 12.7 mph 19.6 mph N/A   Clear
7:15 PM 62.6 °F 44.6 °F 52% 30.01 in 10.0 mi NNE 11.5 mph 16.1 mph N/A   Clear
7:35 PM 62.6 °F 46.4 °F 55% 30.01 in 10.0 mi North 9.2 mph - N/A   Clear
8:15 PM 60.8 °F 46.4 °F 59% 30.01 in 10.0 mi North 5.8 mph - N/A   Clear
8:35 PM 59.0 °F 46.4 °F 63% 30.02 in 10.0 mi NNW 5.8 mph - N/A   Clear
8:55 PM 57.2 °F 46.4 °F 67% 30.02 in 10.0 mi North 6.9 mph - N/A   Clear
9:35 PM 57.2 °F 46.4 °F 67% 30.01 in 10.0 mi NNW 6.9 mph - N/A   Clear
9:55 PM 57.2 °F 46.4 °F 67% 30.01 in 10.0 mi NNW 8.1 mph - N/A   Clear
10:15 PM 57.2 °F 46.4 °F 67% 30.01 in 10.0 mi NNW 9.2 mph - N/A   Clear
10:35 PM 57.2 °F 46.4 °F 67% 30.00 in 10.0 mi NNW 8.1 mph - N/A   Clear
10:55 PM 55.4 °F 46.4 °F 72% 30.00 in 10.0 mi North 10.4 mph - N/A   Clear
11:15 PM 55.4 °F 46.4 °F 72% 30.00 in 10.0 mi North 9.2 mph - N/A   Clear
11:35 PM 55.4 °F 46.4 °F 72% 30.00 in 10.0 mi North 8.1 mph - N/A   Clear
11:55 PM 55.4 °F 46.4 °F 72% 29.99 in 10.0 mi NNW 8.1 mph - N/A   Clear